Newberry, MI

4:06 AM EST on February 21, 2017 (GMT -0500)
Luce County

Weather History for KERY - October, 2012

Change the Weather History Date:

Saturday, October 27, 2012

  Actual Average Record
Temperature  
Mean Temperature 35 °F -  
Max Temperature 44 °F 51 °F 71 °F (1924)
Min Temperature 26 °F 35 °F 14 °F (1936)
Degree Days  
Heating Degree Days 30    
Moisture  
Dew Point 27 °F    
Average Humidity 75    
Maximum Humidity 100    
Minimum Humidity 39    
Precipitation  
Precipitation 0.00 in - - ()
Sea Level Pressure  
Sea Level Pressure 30.29 in    
Wind  
Wind Speed 5 mph (West)    
Max Wind Speed 13 mph    
Max Gust Speed 16 mph    
Visibility 10 miles    
Events      
Averages and records for this station are not official NWS values.
T = Trace of Precipitation, MM = Missing Value Source: NWS Daily Summary

Daily Weather History Graph

Daily Weather History Graph

Search for Another Location

Airport or City:

Trip Planner

Search our weather history database for the weather conditions in past years. The results will help you decide how hot, cold, wet, or windy it might be!

Date:

Astronomy

Oct. 27, 2012 Rise Set
Actual Time 8:16 AM EDT 6:34 PM EDT
Civil Twilight 7:45 AM EDT 7:05 PM EDT
Nautical Twilight 7:10 AM EDT 7:40 PM EDT
Astronomical Twilight 6:35 AM EDT 8:15 PM EDT
Moon 5:23 PM EDT (10/27) 6:05 AM EDT (10/27)
Length of Visible Light 11h 19m
Length of Day
10h 17m
Waxing Gibbous, 96% of the Moon is Illuminated
Oct 27
Waxing Gibbous
Oct 29
Full
Nov 6
Last Quarter
Nov 13
New
Nov 20
First Quarter

Hourly Weather History & Observations

Time (EDT) Temp. Windchill Dew Point Humidity Pressure Visibility Wind Dir Wind Speed Gust Speed Precip Events Conditions
12:35 AM 33.8 °F 29.6 °F 26.6 °F 75% 30.27 in 10.0 mi West 4.6 mph - N/A   Clear
12:54 AM 30.2 °F 26.7 °F 26.6 °F 86% 30.27 in 10.0 mi SW 3.5 mph - N/A   Clear
1:15 AM 30.2 °F 25.4 °F 26.6 °F 86% 30.28 in 10.0 mi WSW 4.6 mph - N/A   Clear
1:34 AM 28.4 °F 23.3 °F 24.8 °F 86% 30.28 in 10.0 mi WSW 4.6 mph - N/A   Clear
1:54 AM 30.2 °F 25.4 °F 24.8 °F 80% 30.27 in 10.0 mi WSW 4.6 mph - N/A   Clear
2:15 AM 28.4 °F 24.6 °F 24.8 °F 86% 30.27 in 10.0 mi SW 3.5 mph - N/A   Clear
2:34 AM 28.4 °F 23.3 °F 24.8 °F 86% 30.27 in 10.0 mi SW 4.6 mph - N/A   Clear
2:54 AM 26.6 °F 21.2 °F 23.0 °F 86% 30.27 in 10.0 mi SW 4.6 mph - N/A   Clear
3:15 AM 26.6 °F 20.0 °F 24.8 °F 93% 30.28 in 10.0 mi SW 5.8 mph - N/A   Clear
3:34 AM 26.6 °F 21.2 °F 23.0 °F 86% 30.27 in 10.0 mi SW 4.6 mph - N/A   Clear
3:55 AM 26.6 °F 20.0 °F 24.8 °F 93% 30.27 in 10.0 mi SW 5.8 mph - N/A   Clear
4:34 AM 28.4 °F 23.3 °F 24.8 °F 86% 30.26 in 10.0 mi WSW 4.6 mph - N/A   Clear
4:55 AM 28.4 °F 23.3 °F 24.8 °F 86% 30.26 in 10.0 mi WSW 4.6 mph - N/A   Clear
5:14 AM 28.4 °F 22.2 °F 24.8 °F 86% 30.27 in 10.0 mi WSW 5.8 mph - N/A   Clear
5:35 AM 28.4 °F 22.2 °F 24.8 °F 86% 30.27 in 10.0 mi WSW 5.8 mph - N/A   Clear
5:54 AM 28.4 °F 23.3 °F 24.8 °F 86% 30.27 in 10.0 mi WSW 4.6 mph - N/A   Clear
6:15 AM 28.4 °F 23.3 °F 24.8 °F 86% 30.28 in 10.0 mi WSW 4.6 mph - N/A   Mostly Cloudy
6:35 AM 30.2 °F 23.4 °F 26.6 °F 86% 30.28 in 10.0 mi West 6.9 mph - N/A   Overcast
6:54 AM 32.0 °F 27.5 °F 26.6 °F 80% 30.28 in 10.0 mi WSW 4.6 mph - N/A   Overcast
7:15 AM 32.0 °F 26.4 °F 26.6 °F 80% 30.28 in 10.0 mi WSW 5.8 mph - N/A   Overcast
7:54 AM 32.0 °F 25.6 °F 24.8 °F 75% 30.29 in 10.0 mi West 6.9 mph - N/A   Overcast
8:15 AM 32.0 °F 26.4 °F 24.8 °F 75% 30.29 in 10.0 mi West 5.8 mph - N/A   Mostly Cloudy
8:34 AM 32.0 °F 26.4 °F 24.8 °F 75% 30.30 in 10.0 mi West 5.8 mph - N/A   Overcast
8:54 AM 32.0 °F 25.6 °F 24.8 °F 75% 30.30 in 10.0 mi West 6.9 mph - N/A   Overcast
9:15 AM 33.8 °F 27.0 °F 24.8 °F 70% 30.31 in 10.0 mi West 8.1 mph - N/A   Overcast
9:34 AM 33.8 °F 26.4 °F 24.8 °F 70% 30.31 in 10.0 mi West 9.2 mph - N/A   Overcast
10:15 AM 35.6 °F 29.9 °F 24.8 °F 65% 30.31 in 10.0 mi West 6.9 mph - N/A   Overcast
10:34 AM 35.6 °F 28.6 °F 24.8 °F 65% 30.31 in 10.0 mi West 9.2 mph - N/A   Overcast
11:34 AM 39.2 °F 33.6 °F 26.6 °F 61% 30.29 in 10.0 mi West 8.1 mph - N/A   Overcast
11:55 AM 41.0 °F 35.2 °F 24.8 °F 53% 30.29 in 10.0 mi West 9.2 mph - N/A   Overcast
12:14 PM 42.8 °F 38.0 °F 24.8 °F 49% 30.29 in 10.0 mi West 8.1 mph - N/A   Scattered Clouds
12:35 PM 42.8 °F 41.1 °F 24.8 °F 49% 30.29 in 10.0 mi West 3.5 mph - N/A   Scattered Clouds
12:55 PM 42.8 °F 38.0 °F 24.8 °F 49% 30.28 in 10.0 mi SW 8.1 mph - N/A   Mostly Cloudy
1:14 PM 41.0 °F 39.0 °F 21.2 °F 45% 30.28 in 10.0 mi West 3.5 mph - N/A   Overcast
1:35 PM 41.0 °F 36.4 °F 23.0 °F 49% 30.28 in 10.0 mi WNW 6.9 mph - N/A   Overcast
1:54 PM 42.8 °F 41.1 °F 23.0 °F 46% 30.27 in 10.0 mi WSW 3.5 mph - N/A   Overcast
2:14 PM 41.0 °F 35.8 °F 23.0 °F 49% 30.27 in 10.0 mi West 8.1 mph - N/A   Overcast
2:35 PM 42.8 °F 38.6 °F 21.2 °F 42% 30.26 in 10.0 mi West 6.9 mph - N/A   Overcast
2:54 PM 42.8 °F 36.2 °F 23.0 °F 46% 30.26 in 10.0 mi West 12.7 mph - N/A   Overcast
3:15 PM 42.8 °F 40.1 °F 21.2 °F 42% 30.26 in 10.0 mi WSW 4.6 mph - N/A   Scattered Clouds
3:35 PM 42.8 °F 41.1 °F 21.2 °F 42% 30.25 in 10.0 mi WSW 3.5 mph - N/A   Mostly Cloudy
3:54 PM 44.6 °F 42.2 °F 21.2 °F 39% 30.25 in 10.0 mi West 4.6 mph - N/A   Overcast
4:15 PM 39.2 °F 33.0 °F 30.2 °F 70% 30.27 in 10.0 mi NW 9.2 mph - N/A   Overcast
4:34 PM 39.2 °F 32.5 °F 30.2 °F 70% 30.27 in 10.0 mi WNW 10.4 mph 16.1 mph N/A   Overcast
4:54 PM 39.2 °F 35.0 °F 30.2 °F 70% 30.27 in 10.0 mi NNW 5.8 mph - N/A   Overcast
5:15 PM 37.4 °F 30.8 °F 30.2 °F 75% 30.29 in 10.0 mi North 9.2 mph - N/A   Overcast
5:34 PM 37.4 °F 32.8 °F 30.2 °F 75% 30.29 in 10.0 mi NNW 5.8 mph - N/A   Overcast
5:55 PM 37.4 °F 33.8 °F 30.2 °F 75% 30.29 in 10.0 mi North 4.6 mph - N/A   Overcast
6:15 PM 37.4 °F 34.9 °F 32.0 °F 81% 30.29 in 10.0 mi North 3.5 mph - N/A   Overcast
6:34 PM 37.4 °F - 32.0 °F 81% 30.29 in 10.0 mi Calm Calm - N/A   Overcast
6:55 PM 35.6 °F - 33.8 °F 93% 30.30 in 10.0 mi Calm Calm - N/A   Overcast
7:14 PM 35.6 °F - 32.0 °F 87% 30.30 in 10.0 mi Calm Calm - N/A   Overcast
7:34 PM 35.6 °F - 32.0 °F 87% 30.30 in 10.0 mi Calm Calm - N/A   Overcast
7:55 PM 35.6 °F 32.8 °F 30.2 °F 81% 30.31 in 10.0 mi NW 3.5 mph - N/A   Overcast
8:14 PM 35.6 °F 29.9 °F 30.2 °F 81% 30.31 in 10.0 mi NNW 6.9 mph - N/A   Overcast
8:35 PM 33.8 °F 30.8 °F 30.2 °F 87% 30.31 in 10.0 mi NNW 3.5 mph - N/A   Overcast
8:55 PM 33.8 °F 29.6 °F 30.2 °F 87% 30.31 in 10.0 mi NNW 4.6 mph - N/A   Mostly Cloudy
9:14 PM 33.8 °F - 30.2 °F 87% 30.31 in 10.0 mi Calm Calm - N/A   Overcast
9:35 PM 33.8 °F - 30.2 °F 87% 30.31 in 10.0 mi Calm Calm - N/A   Overcast
9:55 PM 33.8 °F - 30.2 °F 87% 30.31 in 10.0 mi Calm Calm - N/A   Overcast
10:14 PM 32.0 °F - 30.2 °F 93% 30.32 in 10.0 mi Calm Calm - N/A   Mostly Cloudy
10:35 PM 32.0 °F - 30.2 °F 93% 30.32 in 10.0 mi Calm Calm - N/A   Scattered Clouds
10:54 PM 30.2 °F - 28.4 °F 93% 30.32 in 10.0 mi Calm Calm - N/A   Clear
11:14 PM 28.4 °F - 26.6 °F 93% 30.33 in 10.0 mi Calm Calm - N/A   Clear
11:35 PM 28.4 °F - 28.4 °F 100% 30.33 in 10.0 mi Calm Calm - N/A   Clear
11:54 PM 28.4 °F - 28.4 °F 100% 30.33 in 10.0 mi Calm Calm - N/A   Clear